星链-37555(STARLINK-37555)

导读

STARLINK-37555(NORAD编号69431)是美国太空探索技术公司(SpaceX)星链星座的第二代低轨通信卫星。该卫星属于2026年上半年发射的星链组网批次,运行于高度约480公里的近地轨道,轨道倾角约53度,轨道周期约94分钟,当前处于正常运营状态,主要承担全球高速互联网接入服务,重点覆盖地面网络难以抵达的偏远区域。作为SpaceX星链扩容计划的组成部分,其采用了优化的抗干扰设计,可配合星座内其他卫星实现低延迟通信传输,同时符合2026年星链降轨调整的安全规范,故障后可在数月内自然再入大气层销毁,降低空间碎片风险。

Basic Information
目录编号:
69431
目录名称:
STARLINK-37555
国际标识:
2026-126M
轨道中心:
EARTH
卫星名称:
星链-37555
卫星全名:
星链-37555(STARLINK-37555)
卫星状态:
在轨 (已飞行89 天)
发射日期:
2026-06-07 UTC
国别 :
美国 (US)
星等 :
--
Orbit Information
数据来源 国际轨道数据
星历时间: 2026-09-03T12:36:46+0800
22小时前
查看轨道信息
半长轴: 6843.685km
偏心率: 0.0001797
轨道倾角: 97.285°
近地点辐角 84.206°
升交点赤经 107.697°
平近点角 275.939°
近地点: 464.318km
远地点: 466.778km
周期: 93.906分钟
每日圈数: 15.334435
Detailed Information
固有亮度:
5
最大亮度:
2.5
卫星平台:
Starlink V1.0
覆盖范围:
全球
运营商:
太空探索技术公司
运营商所在国:
美国
制造商(研发单位):
太空探索技术公司
制造商所在国:
美国
使用方式:
暂无
Satellite Introduction
Starlink 计划是 SpaceX 推出的全球卫星互联网项目,通过发射低轨道卫星,为全球尤其是偏远地区提供高速、低延迟的互联网服务。自 2019 年起,Starlink 已部署数千颗卫星,旨在缩小全球数字鸿沟,推动互联网普及。该项目还为军事、航空等行业提供通信支持,带来广泛经济效益。
2D Orbit Map
3D Orbit Map
Orbit Altitude Analysis Chart
Orbit Inclination Analysis Chart
Orbit Comprehensive Analysis Chart
View Comprehensive Chart
Conjunction Data List
Event ID Objects TCA Miss Dist (km) Collision Risk Probability Collision Risk Index (CRI) Action
CDM_260905-054506-415406-943121
2026-09-05T
05:45:24+0000
1.496 km
极远距离
6.849718E-6 低风险 0.52
CDM_260905-131305-231306-943121
2026-09-05T
13:13:08+0000
1.930 km
极远距离
2.896088E-6 低风险 0.44
CDM_260905-071906-415406-943121
2026-09-05T
07:19:22+0000
2.102 km
极远距离
2.553191E-6 低风险 0.43